• In Germany
  • List of Countries
  • For 7 days
  • Water Temperature
  • Satellite Maps
  • Weather Map
  • Weather Widgets
  • user-avatar
    Login

    Hourly Weather Bucaramanga

    Today, 25 September, Monday

    Time Temperature Precipitation Wind Pressure Humidity
    00:00 +22°C° 1.2 mm 1 mps 672 mmHg 88%
    01:00 +22°C° 1.2 mm 1 mps 672 mmHg 89%
    02:00 +21°C° 0.9 mm 1 mps 672 mmHg 88%
    03:00 +21°C° 0.9 mm 1 mps 672 mmHg 87%
    04:00 +21°C° 0.9 mm 1 mps 672 mmHg 87%
    05:00 +21°C° 0.4 mm 1 mps 672 mmHg 86%
    06:00 +22°C° 0.4 mm 1 mps 672 mmHg 85%
    07:00 +23°C° 0.4 mm 1 mps 673 mmHg 84%
    08:00 +24°C° 0.1 mm 1 mps 673 mmHg 77%
    09:00 +26°C° 0.1 mm 1 mps 674 mmHg 70%
    10:00 +28°C° 0.1 mm 1 mps 674 mmHg 63%
    11:00 +28°C° 0.4 mm 1 mps 673 mmHg 64%
    12:00 +29°C° 0.4 mm 1 mps 673 mmHg 65%
    13:00 +29°C° 0.4 mm 1 mps 672 mmHg 66%
    14:00 +28°C° 1.3 mm 1 mps 672 mmHg 69%
    15:00 +28°C° 1.3 mm 1 mps 671 mmHg 73%
    16:00 +27°C° 1.3 mm 1 mps 670 mmHg 77%
    17:00 +26°C° 1 mm 1 mps 671 mmHg 80%
    18:00 +25°C° 1 mm 1 mps 671 mmHg 83%
    19:00 +24°C° 1 mm 1 mps 671 mmHg 86%
    20:00 +23°C° 0.4 mm 1 mps 672 mmHg 85%
    21:00 +23°C° 0.4 mm 1 mps 672 mmHg 85%
    22:00 +23°C° 0.4 mm 1 mps 673 mmHg 84%
    23:00 +21°C° 0.6 mm 0 mps 672 mmHg 86%

    Tomorrow, 26 September, Tuesday

    Time Temperature Precipitation Wind Pressure Humidity
    00:00 +20°C° 0.6 mm 0 mps 672 mmHg 87%
    01:00 +20°C° 0.6 mm 0 mps 671 mmHg 89%
    02:00 +20°C° 1.1 mm 0 mps 671 mmHg 90%
    03:00 +20°C° 1.1 mm 0 mps 671 mmHg 91%
    04:00 +19°C° 1.1 mm 0 mps 671 mmHg 92%
    05:00 +20°C° 0.7 mm 0 mps 672 mmHg 91%
    06:00 +20°C° 0.7 mm 0 mps 672 mmHg 90%
    07:00 +21°C° 0.7 mm 0 mps 673 mmHg 89%
    08:00 +22°C° 0.7 mm 0 mps 673 mmHg 84%
    09:00 +25°C° 0.7 mm 1 mps 674 mmHg 80%
    10:00 +26°C° 0.7 mm 1 mps 674 mmHg 75%
    11:00 +26°C° 0.8 mm 1 mps 673 mmHg 75%
    12:00 +27°C° 0.8 mm 1 mps 673 mmHg 75%
    13:00 +27°C° 0.8 mm 1 mps 672 mmHg 74%
    14:00 +27°C° 1 mm 1 mps 671 mmHg 77%
    15:00 +26°C° 1 mm 1 mps 671 mmHg 79%
    16:00 +24°C° 1 mm 0 mps 670 mmHg 82%
    17:00 +25°C° 0.8 mm 1 mps 671 mmHg 84%
    18:00 +24°C° 0.8 mm 1 mps 671 mmHg 86%
    19:00 +23°C° 0.8 mm 1 mps 671 mmHg 88%
    20:00 +23°C° 0.6 mm 1 mps 672 mmHg 88%
    21:00 +23°C° 0.6 mm 1 mps 672 mmHg 88%
    22:00 +22°C° 0.6 mm 1 mps 673 mmHg 87%
    23:00 +22°C° 0.7 mm 1 mps 672 mmHg 88%

    Day after tomorrow, 27 September, Wednesday

    Time Temperature Precipitation Wind Pressure Humidity
    00:00 +22°C° 0.7 mm 1 mps 672 mmHg 89%
    01:00 +22°C° 0.7 mm 1 mps 672 mmHg 89%
    02:00 +21°C° 0.5 mm 1 mps 671 mmHg 90%
    03:00 +21°C° 0.5 mm 1 mps 671 mmHg 90%
    04:00 +19°C° 0.5 mm 0 mps 671 mmHg 90%
    05:00 +20°C° 0.3 mm 0 mps 671 mmHg 89%
    06:00 +20°C° 0.3 mm 0 mps 672 mmHg 88%
    07:00 +21°C° 0.3 mm 0 mps 672 mmHg 87%
    08:00 +24°C° 0.2 mm 1 mps 673 mmHg 81%
    09:00 +26°C° 0.2 mm 1 mps 673 mmHg 75%
    10:00 +27°C° 0.2 mm 1 mps 673 mmHg 69%
    11:00 +28°C° 0.3 mm 1 mps 673 mmHg 69%
    12:00 +28°C° 0.3 mm 1 mps 672 mmHg 69%
    13:00 +28°C° 0.3 mm 1 mps 671 mmHg 70%
    14:00 +28°C° 1.1 mm 1 mps 671 mmHg 72%
    15:00 +27°C° 1.1 mm 1 mps 670 mmHg 75%
    16:00 +27°C° 1.1 mm 1 mps 670 mmHg 78%
    17:00 +26°C° 1.8 mm 1 mps 670 mmHg 81%
    18:00 +24°C° 1.8 mm 1 mps 670 mmHg 85%
    19:00 +23°C° 1.8 mm 1 mps 671 mmHg 88%
    20:00 +23°C° 1 mm 1 mps 671 mmHg 88%
    21:00 +23°C° 1 mm 1 mps 672 mmHg 89%
    22:00 +23°C° 1 mm 1 mps 672 mmHg 90%
    23:00 +22°C° 1.6 mm 1 mps 672 mmHg 90%

    28 September, Thursday

    Time Temperature Precipitation Wind Pressure Humidity
    00:00 +22°C° 1.6 mm 1 mps 672 mmHg 91%
    01:00 +20°C° 1.6 mm 0 mps 671 mmHg 91%
    02:00 +20°C° 1 mm 0 mps 671 mmHg 91%
    03:00 +20°C° 1 mm 0 mps 671 mmHg 92%
    04:00 +19°C° 1 mm 0 mps 671 mmHg 92%
    05:00 +20°C° 0.7 mm 0 mps 672 mmHg 91%
    06:00 +20°C° 0.7 mm 0 mps 672 mmHg 91%
    07:00 +20°C° 0.7 mm 0 mps 673 mmHg 90%
    08:00 +23°C° 0.7 mm 1 mps 673 mmHg 85%
    09:00 +25°C° 0.7 mm 1 mps 673 mmHg 81%
    10:00 +26°C° 0.7 mm 1 mps 674 mmHg 76%
    11:00 +27°C° 0.3 mm 1 mps 673 mmHg 73%
    12:00 +28°C° 0.3 mm 1 mps 672 mmHg 70%
    13:00 +28°C° 0.3 mm 1 mps 671 mmHg 67%
    14:00 +28°C° 0.6 mm 1 mps 671 mmHg 71%
    15:00 +27°C° 0.6 mm 1 mps 670 mmHg 74%
    16:00 +26°C° 0.6 mm 1 mps 670 mmHg 78%
    17:00 +25°C° 0.8 mm 1 mps 670 mmHg 82%
    18:00 +24°C° 0.8 mm 1 mps 671 mmHg 86%
    19:00 +21°C° 0.8 mm 0 mps 671 mmHg 90%
    20:00 +21°C° 0.7 mm 0 mps 672 mmHg 89%
    21:00 +21°C° 0.7 mm 0 mps 672 mmHg 89%
    22:00 +21°C° 0.7 mm 0 mps 672 mmHg 89%
    23:00 +20°C° 0.8 mm 0 mps 672 mmHg 90%

    29 September, Friday

    Time Temperature Precipitation Wind Pressure Humidity
    00:00 +20°C° 0.8 mm 0 mps 672 mmHg 91%
    01:00 +20°C° 0.8 mm 0 mps 672 mmHg 92%
    02:00 +20°C° 0.6 mm 0 mps 671 mmHg 92%
    03:00 +20°C° 0.6 mm 0 mps 671 mmHg 92%
    04:00 +19°C° 0.6 mm 0 mps 671 mmHg 92%
    05:00 +20°C° 0.5 mm 0 mps 672 mmHg 91%
    06:00 +20°C° 0.5 mm 0 mps 672 mmHg 90%
    07:00 +21°C° 0.5 mm 0 mps 673 mmHg 89%
    08:00 +22°C° 0.3 mm 0 mps 673 mmHg 84%
    09:00 +25°C° 0.3 mm 1 mps 673 mmHg 79%
    10:00 +26°C° 0.3 mm 1 mps 674 mmHg 73%
    11:00 +27°C° 0.3 mm 1 mps 673 mmHg 72%
    12:00 +27°C° 0.3 mm 1 mps 672 mmHg 70%
    13:00 +28°C° 0.3 mm 1 mps 671 mmHg 68%
    14:00 +28°C° 0.6 mm 1 mps 671 mmHg 71%
    15:00 +27°C° 0.6 mm 1 mps 671 mmHg 74%
    16:00 +27°C° 0.6 mm 1 mps 670 mmHg 77%
    17:00 +25°C° 0.7 mm 1 mps 671 mmHg 81%
    18:00 +24°C° 0.7 mm 1 mps 671 mmHg 84%
    19:00 +21°C° 0.7 mm 0 mps 671 mmHg 88%
    20:00 +21°C° 0.6 mm 0 mps 672 mmHg 88%
    21:00 +23°C° 0.6 mm 1 mps 672 mmHg 88%
    22:00 +23°C° 0.6 mm 1 mps 672 mmHg 88%
    23:00 +22°C° 0.8 mm 1 mps 672 mmHg 89%

    30 September, Saturday

    Time Temperature Precipitation Wind Pressure Humidity
    00:00 +22°C° 0.8 mm 1 mps 672 mmHg 90%
    01:00 +20°C° 0.8 mm 0 mps 671 mmHg 91%
    02:00 +20°C° 0.8 mm 0 mps 671 mmHg 92%
    03:00 +19°C° 0.8 mm 0 mps 671 mmHg 92%
    04:00 +19°C° 0.8 mm 0 mps 671 mmHg 93%
    05:00 +20°C° 0.7 mm 0 mps 672 mmHg 92%
    06:00 +20°C° 0.7 mm 0 mps 672 mmHg 92%
    07:00 +20°C° 0.7 mm 0 mps 673 mmHg 91%
    08:00 +21°C° 0.4 mm 0 mps 673 mmHg 87%
    09:00 +24°C° 0.4 mm 1 mps 673 mmHg 82%
    10:00 +25°C° 0.4 mm 1 mps 674 mmHg 78%
    11:00 +26°C° 0.3 mm 1 mps 673 mmHg 76%
    12:00 +26°C° 0.3 mm 1 mps 672 mmHg 74%
    13:00 +27°C° 0.3 mm 2 mps 671 mmHg 72%
    14:00 +26°C° 0.4 mm 1 mps 671 mmHg 75%
    15:00 +26°C° 0.4 mm 1 mps 671 mmHg 78%
    16:00 +25°C° 0.4 mm 1 mps 670 mmHg 80%
    17:00 +25°C° 0.5 mm 1 mps 671 mmHg 84%
    18:00 +24°C° 0.5 mm 1 mps 671 mmHg 88%
    19:00 +21°C° 0.5 mm 0 mps 671 mmHg 92%
    20:00 +21°C° 0.8 mm 0 mps 672 mmHg 92%
    21:00 +20°C° 0.8 mm 0 mps 672 mmHg 92%
    22:00 +20°C° 0.8 mm 0 mps 672 mmHg 92%
    23:00 +20°C° 0.9 mm 0 mps 672 mmHg 92%
    Show more